Sault Sainte Marie, MI

8:53 AM EDT on September 27, 2016 (GMT -0400)
Sault Ste Marie Municipal / Sanderson Field

Weather History for KANJ - June, 2013

Change the Weather History Date:

Thursday, June 6, 2013

  Actual Average Record
Temperature  
Mean Temperature 61 °F 58 °F  
Max Temperature 70 °F 69 °F 89 °F (1925)
Min Temperature 51 °F 46 °F 32 °F (1983)
Degree Days  
Heating Degree Days 4 8  
Month to date heating degree days 66 51  
Since 1 June heating degree days 66 51  
Since 1 July heating degree days 8282 8534  
Cooling Degree Days 0 0  
Month to date cooling degree days 1 0  
Year to date cooling degree days 10 5  
Since 1 June cooling degree days 1 0  
Growing Degree Days 10 (Base 50)    
Moisture  
Dew Point 39 °F    
Average Humidity 53    
Maximum Humidity 77    
Minimum Humidity 28    
Precipitation  
Precipitation 0.00 in 0.09 in 1.93 in (1942)
Month to date precipitation 0.43 0.54  
Year to date precipitation 14.69 10.98  
Sea Level Pressure  
Sea Level Pressure 30.05 in    
Wind  
Wind Speed 6 mph (NNW)    
Max Wind Speed 13 mph    
Max Gust Speed 18 mph    
Visibility 10 miles    
Events      
T = Trace of Precipitation, MM = Missing Value Source: NWS Daily Summary

Daily Weather History Graph

Daily Weather History Graph

Search for Another Location

Airport or City:

Trip Planner

Search our weather history database for the weather conditions in past years. The results will help you decide how hot, cold, wet, or windy it might be!

Date:

Astronomy

Jun. 06, 2013 Rise Set
Actual Time 5:45 AM EDT 9:26 PM EDT
Civil Twilight 5:07 AM EDT 10:05 PM EDT
Nautical Twilight 4:15 AM EDT 10:57 PM EDT
Astronomical Twilight 3:04 AM EDT 12:09 AM EDT
Moon 4:33 AM EDT (6/6) 7:42 PM EDT (6/6)
Length of Visible Light 16h 58m
Length of Day
15h 41m
Waning Crescent, 4% of the Moon is Illuminated
Jun 6
Waning Crescent
Jun 8
New
Jun 16
First Quarter
Jun 23
Full
Jun 30
Last Quarter

Hourly Weather History & Observations

Time (EDT) Temp. Dew Point Humidity Pressure Visibility Wind Dir Wind Speed Gust Speed Precip Events Conditions
12:55 AM 52.0 °F 43.0 °F 71% 30.14 in 10.0 mi Calm Calm - N/A   Clear
1:55 AM 51.1 °F 44.1 °F 77% 30.12 in 10.0 mi East 3.5 mph - N/A   Overcast
2:55 AM 51.1 °F 44.1 °F 77% 30.12 in 10.0 mi ENE 3.5 mph - N/A   Overcast
3:55 AM 51.1 °F 44.1 °F 77% 30.12 in 10.0 mi ENE 3.5 mph - N/A   Overcast
4:55 AM 52.0 °F 44.1 °F 74% 30.10 in 10.0 mi ENE 3.5 mph - N/A   Overcast
5:55 AM 51.1 °F 44.1 °F 77% 30.10 in 10.0 mi Calm Calm - N/A   Overcast
6:55 AM 53.1 °F 42.1 °F 66% 30.09 in 10.0 mi Variable 4.6 mph - N/A   Overcast
7:55 AM 55.9 °F 39.0 °F 53% 30.09 in 10.0 mi ENE 6.9 mph - N/A   Clear
8:55 AM 57.9 °F 36.0 °F 44% 30.09 in 10.0 mi Variable 6.9 mph - N/A   Mostly Cloudy
12:55 PM 66.9 °F 35.1 °F 31% 30.04 in 10.0 mi SE 8.1 mph - N/A   Clear
1:55 PM 68.0 °F 37.0 °F 32% 30.02 in 10.0 mi Variable 5.8 mph - N/A   Clear
2:55 PM 69.1 °F 37.9 °F 32% 30.01 in 10.0 mi South 8.1 mph - N/A   Clear
3:55 PM 70.0 °F 36.0 °F 29% 30.00 in 10.0 mi SE 8.1 mph - N/A   Clear
4:55 PM 64.9 °F 37.9 °F 37% 30.01 in 10.0 mi WNW 6.9 mph - N/A   Clear
5:55 PM 64.0 °F 37.9 °F 38% 30.01 in 10.0 mi NW 5.8 mph - N/A   Clear
6:55 PM 64.0 °F 37.9 °F 38% 30.01 in 10.0 mi WNW 4.6 mph - N/A   Clear
7:55 PM 63.0 °F 37.0 °F 38% 30.00 in 10.0 mi NW 6.9 mph - N/A   Clear
8:55 PM 61.0 °F 35.1 °F 38% 30.00 in 10.0 mi WNW 3.5 mph - N/A   Clear
9:55 PM 57.9 °F 32.0 °F 37% 30.00 in 10.0 mi NW 5.8 mph - N/A   Clear
10:55 PM 54.0 °F 36.0 °F 51% 30.00 in 10.0 mi West 5.8 mph - N/A   Clear
11:55 PM 51.1 °F 37.9 °F 61% 30.00 in 10.0 mi WSW 3.5 mph - N/A   Clear